sat.trackr.live / text

‹ back to catalog

KUIPER-00421

NORAD 68933 · 2026-098Q

PAYLOAD ACTIVE UNKNOWN

§ Identity

Operator
Country
US
Launch date
2026-04-30
Launch site
FRGUI
Launch vehicle
Mass (kg)
RCS (m²)

External: N2YO · Heavens-Above · Gunter

§ Orbital elements

Epoch: 2026-09-19T22:57:34.837344Z

Period
97.30 min
Inclination
51.9023°
Eccentricity
0.0000424
Mean motion
14.79930190 rev/d
Perigee alt
629.2 km
Apogee alt
629.8 km
Semi-major
7,007.7 km
B*
2.0092e-4
RAAN
351.5446°
Arg perigee
86.3082°
Mean anomaly
273.7929°
Rev number
2,162

§ Raw data

KUIPER-004211 68933U 26098Q   26262.95665321  .00001311  00000+0  20092-3 0  99902 68933  51.9023 351.5446 0000424  86.3082 273.7929 14.79930190 21629

JSON: /api/v1/satellites/68933 · /tle

For live sub-satellite position, see the globe view (requires WebGL).

§ Visibility from observer

Set your observer location to see the next 7 days of passes ≥ 10°. The values pass through the URL so the page stays shareable.

No JS? Fill the form by hand. The geolocation button needs JavaScript.